sat.trackr.live / text

‹ back to catalog

SHIYAN-5 (SY-5)

NORAD 39455 · 2013-068A

PAYLOAD ACTIVE UNKNOWN

§ Identity

Operator
Country
PRC
Launch date
2013-11-25
Launch site
JSC
Launch vehicle
Mass (kg)
RCS (m²)
1.33

External: N2YO · Heavens-Above · Gunter

§ Orbital elements

Epoch: 2026-05-25T03:11:51.752832Z

Period
99.75 min
Inclination
98.0754°
Eccentricity
0.0014744
Mean motion
14.43667309 rev/d
Perigee alt
735.9 km
Apogee alt
756.9 km
Semi-major
7,124.5 km
B*
7.4970e-5
RAAN
17.4701°
Arg perigee
19.3420°
Mean anomaly
340.8328°
Rev number
65,830

§ Raw data

SHIYAN-5 (SY-5)1 39455U 13068A   26145.13323788  .00000214  00000+0  74970-4 0  99942 39455  98.0754  17.4701 0014744  19.3420 340.8328 14.43667309658303

JSON: /api/v1/satellites/39455 · /tle

For live sub-satellite position, see the globe view (requires WebGL).

§ Visibility from observer

Set your observer location to see the next 7 days of passes ≥ 10°. The values pass through the URL so the page stays shareable.

No JS? Fill the form by hand. The geolocation button needs JavaScript.